Regional Weather Roundup
Issued by NWS Grand Forks, ND

Home | Current Version | Previous Version | Graphics & Text | Print | Product List | Glossary On
Versions: 1 2 3 4 5 6 7 8 9 10 11 12 13 14 15 16 17 18 19 20 21 22 23 24 25 26 27 28 29 30 31 32 33 34 35 36 37 38 39 40 41 42 43 44 45 46 47 48 49 50
000
ASUS43 KFGF 280931
RWRFGF
PRAIRIE TO PINES  WEATHER ROUNDUP
NATIONAL WEATHER SERVICE EASTERN NORTH DAKOTA/GRAND FORKS ND
400 AM CDT THU APR 28 2016

 **SATELLITE DATA USED TO AUGMENT SKY COVER AT AUTOMATED STATIONS**
 *****  WEATHER ACROSS EASTERN NORTH DAKOTA  *****

CITY           SKY/WX    TMP DP  RH WIND       PRES   REMARKS
GRAND FORKS    CLOUDY    41  24  51 NE9       30.05R
GRAND FRKS AFB CLOUDY    36  23  59 N3        30.05S
DEVILS LAKE    CLOUDY    40  22  48 NE12      30.06R
FARGO          CLOUDY    45  26  47 N8        29.99S
WAHPETON ARPT  CLOUDY    41  27  56 NE5       29.98R
$$

 ***** WEATHER ACROSS CENTRAL AND WESTERN NORTH DAKOTA  *****

CITY           SKY/WX    TMP DP  RH WIND       PRES   REMARKS
BISMARCK       LGT RAIN  40  35  83 E10       30.02R
MINOT          CLOUDY    39  24  55 N9        30.07S
JAMESTOWN      CLOUDY    41  31  67 SE8       30.00S
MINOT AFB      CLOUDY    38  24  55 N9        30.07S
GARRISON         N/A     39  26  59 NE9       30.03R
WILLISTON      CLOUDY    40  25  55 NE9       30.08S
DICKINSON      CLOUDY    35  29  78 E6        29.99R
HETTINGER      CLOUDY    33  31  92 N7        30.01R
$$

 *****  OTHER AIRPORT OBSERVATIONS IN OUR AREA  *****

CITY           SKY/WX    TMP DP  RH WIND       PRES   REMARKS
WALHALLA       FAIR      36  27  69 NW5       30.12R
GRAFTON AIRPOR FAIR      39  25  56 NE9       30.10R
VALLEY CITY AR CLOUDY    39  34  81 SE6       30.03S
CANDO          FAIR      37  23  56 NE10      30.11R
CAVALIER APRT  FAIR      37  25  60 N6        30.10S
GWINNER        CLOUDY    39  36  87 N5        29.97S
SHEYENNE NWR     N/A     42  27  54 NE7       29.95S
ROLLA          FAIR      36  19  51 NE12      30.11S
 ***** THE ABOVE OBSERVATIONS ARE NON NWS ARE NOT QUALITY
       CONTROLLED AND MAY MIS-REPORT RAIN FOR SNOW...
$$

  *****  WEATHER ACROSS NORTHERN MINNESOTA  *****

CITY           SKY/WX    TMP DP  RH WIND       PRES   REMARKS
FLAG ISLAND    CLOUDY    39  16  38 NE9       30.12R
WARROAD        MOCLDY    37  27  65 NE9       30.11S
ROSEAU         CLOUDY    36  27  69 E6        30.11R
HALLOCK        CLOUDY    43  12  28 E10       30.09S
THF RVR FALLS  CLOUDY    39  18  41 NE12      30.07R
BAUDETTE       CLOUDY    36  14  40 NE6       30.09R
WASKISH        CLOUDY    36  21  55 NE3       30.08R
CROOKSTON      CLOUDY    39  21  48 E10       30.06R
$$
  *****  WEATHER ACROSS CENTRAL AND WEST MINNESOTA  *****

CITY           SKY/WX    TMP DP  RH WIND       PRES   REMARKS
FOSSTON        CLOUDY    39  27  60 NE5       30.04R
BEMIDJI        CLOUDY    39  18  42 E9        30.04R
PARK RAPIDS    CLOUDY    43   9  24 E10G18    29.99R
ELBOW LAKE     CLOUDY    37  29  72 E10G17    29.95S
WADENA         CLOUDY    39  14  35 E10       29.96F
DETROIT LAKES  CLOUDY    45  12  26 E14G20    30.00R
MOORHEAD       CLOUDY    43  27  52 N9        30.00S
FERGUS FALLS   CLOUDY    43  19  39 E6        29.95S
MORRIS MN      CLOUDY    37  30  75 E15       29.92R
STAPLES        CLOUDY    39  12  33 NE9       29.97F
$$
  *****  WEATHER ELSEWHERE ACROSS MINNESOTA  *****

CITY           SKY/WX    TMP DP  RH WIND       PRES   REMARKS
DULUTH         CLOUDY    37  18  46 E17       30.01F
INTRNTL FALLS  CLOUDY    37  17  44 NE5       30.09R
ELY            CLOUDY    34  18  51 CALM      30.07R
CLOQUET        CLOUDY    39   9  28 E10G22    30.00S
WHEATON        CLOUDY    41  32  70 NE9       29.97R
BRAINERD       CLOUDY    40  14  34 NE12      29.99S
HIBBING        CLOUDY    34  13  41 NE3       30.04S
ALEXANDRIA     LGT RAIN  35  30  82 MISG      29.93F
SAINT CLOUD    CLOUDY    37  28  70 NE12G20   29.92F
MINNEAPOLIS    CLOUDY    42  33  70 NE21G30   29.88S
$$

  *****  WEATHER ACROSS SOUTH DAKOTA  *****

CITY           SKY/WX    TMP DP  RH WIND       PRES   REMARKS
SIOUX FALLS    LGT RAIN  41  38  89 NE15      29.79R
BROOKINGS      LGT RAIN  39  37  92 NE13      29.82R
WATERTOWN      CLOUDY    37  30  75 NE17      29.87R
HURON          CLOUDY    39  35  86 NE12      29.87S
SISSETON         N/A     38  31  76 NE9       29.94R
ABERDEEN       CLOUDY    38  34  85 NE15      29.93F
MITCHELL       CLOUDY    42  40  92 NE13      29.85R
PIERRE         CLOUDY    35  34  96 NE15      29.91R
MOBRIDGE       LGT RAIN  37  34  89 E12       29.94R
RAPID CITY     CLOUDY    32  31  96 N16       29.95R WCI  21
$$

  *****  SOME WEATHER IN NEARBY STATES *****

CITY           SKY/WX    TMP DP  RH WIND       PRES   REMARKS
GLASGOW MT     CLOUDY    39  36  89 NW6       30.10S
GREAT FALLS MT LGT SNOW  32  31  96 NE12      30.07S FOG     WCI  23
CHEYENNE WY    CLOUDY    30  27  88 W9        29.91S WCI  22
SCOTTSBLUFF NE MOCLDY    31  27  85 NW5       29.94R
OMAHA NE       LGT RAIN  46  45  96 SE3       29.69R FOG
DES MOINES IA  CLOUDY    48  41  76 SW3       29.68R
DAVENPORT IA   CLOUDY    49  46  90 SE9       29.72R
CHICAGO IL     LGT RAIN  43  42  97 NE16      29.82F FOG
EAU CLAIRE WI  LGT RAIN  41  35  79 NE7       29.89S
LA CROSSE WI   CLOUDY    44  27  51 E10G20    29.83S
$$

  *****  SOME NATIONAL WEATHER *****

CITY           SKY/WX    TMP DP  RH WIND       PRES   REMARKS
LA GUARDIA NY  MOCLDY    49  33  54 NE7       29.97R
RALEIGH NC     CLOUDY    66  64  93 E6        29.89F
ATLANTA GA     CLOUDY    66  63  90 SW8       29.89R
NEW ORLEANS LA LGT RAIN  77  74  90 S6        29.82R
OKLAHOMA CITY  PTCLDY    53  45  74 NE8       29.85R
ALBUQUERQUE NM CLOUDY    59  27  29 SE7G22    29.80R
SALT LAKE CITY CLOUDY    48  43  82 SE6       29.69F
LOS ANGELES CA MOCLDY    58  45  62 NW7       29.76R
BOISE ID       PTCLDY    48  41  76 W3        29.81R
SEATTLE WA     CLOUDY    53  45  74 NE6       30.07R
$$

*** WEATHER ACROSS MANITOBA...SASKATCHEWAN AND ONTARIO ***
                ***ONTARIO***

CITY           SKY/WX    TMP DP  RH WIND       PRES   REMARKS
GERALDTON      PTCLDY    27  19  74 CALM      30.17R
THUNDER BAY    CLEAR     32  19  59 NE3       30.13R
SIOUX LOOKOUT  PTCLDY    32  12  43 NE5       30.17S
TORONTO        MOCLDY    34  19  55 N6        30.05R
BIG TROUT LK   CLOUDY    28  14  54 N3        30.27R
PICKLE LAKE    NOT AVBL
DRYDEN         CLEAR     32  16  51 E7        30.15R
KENORA         MOCLDY    34  12  40 NE7       30.14
$$
                *** MANITOBA***

CITY           SKY/WX    TMP DP  RH WIND       PRES   REMARKS
BRANDON        PTCLDY    37  19  48 NE14G20   30.16S
DAUPHIN        CLEAR     27  21  80 NW5       30.23S WCI  21
ISLAND LAKE    CLEAR     27  12  54 CALM      30.34
PILOT MOUND      N/A     36  19  51 NE9         N/A
THE PAS        CLEAR     36  19  51 E7        30.31R
THOMPSON       PTCLDY    28  18  64 VRB2      30.37R
WINNIPEG       MOCLDY    36  21  55 NE9       30.16R
LYNN LAKE      CLOUDY    39  23  52 SE10      30.27R
CHURCHILL      MOCLDY    23  19  86 NE8       30.47S WCI  14
GILLAM         CLOUDY    25  12  58 VRB2      30.41S
$$
                ***SASKATCHEWAN***

CITY           SKY/WX    TMP DP  RH WIND       PRES   REMARKS
ESTEVAN        CLOUDY    34  21  60 NE10      30.12S
KINDERSLEY     PTCLDY    37  36  93 NE7       30.16R
LLOYDMINSTER   CLEAR     37  27  65 SE3       30.16R HAZE
PRINCE ALBERT  PTCLDY    32  27  80 CALM      30.23R
REGINA         MOCLDY    41  21  45 E10       30.18R
YORKTON        CLEAR     30  23  74 NE3       30.22R
N. BATTLEFORD  CLEAR     34  23  64 E7        30.20S
LA RONGE       CLEAR     39  21  48 S5        30.22S
SASKATOON      MOCLDY    41  25  52 SE5       30.21S
SWIFT CURRENT  MOCLDY    39  25  56 E7        30.13S
$$
NOTE: THESE ARE AUTOMATED STATIONS WITH LIMITED QUALITY CONTROL
      "FAIR" INDICATES FEW OR NO CLOUDS BELOW 12,000 FEET WITH NO
      SIGNIFICANT WEATHER AND/OR OBSTRUCTIONS TO VISIBILITY.
      SKY/WX - SKY CONDITION AND SIGNIFICANT WEATHER.
      TMP - AIR TEMPERATURE.    DP   - DEWPOINT TEMPERATURE.
      RH  - RELATIVE HUMIDITY.  PRES - PRESSURE.
      HX  - HEAT INDEX.         WCI  - WIND CHILL INDEX.
$




USA.gov is the U.S. government's official web portal to all federal, state and local government web resources and services.